User: anonymous   Login
Location: ??????
(30.5519°N, 47.7720°E)
Time: 00:13:51
(UTC+00:00)
Language:

Okean O Rocket - Orbit

View from above orbital plane
View from above orbital plane
View from above satellite
View from above satellite

Ground track
Ground track

The orbit data is extracted from the following two-line orbital elements,

1 25861U 99039B   21110.57369403  .00000069  00000-0  17010-4 0  9992
2 25861  98.2077 124.8133 0014352 249.9578 222.9275 14.78633683173007
Epoch (UTC): 20 April 2021 13:46:07
Eccentricity: 0.0014352
inclination: 98.2077°
perigee height: 623 km
apogee height: 644 km
right ascension of ascending node: 124.8133°
argument of perigee: 249.9578°
revolutions per day: 14.78633683
mean anomaly at epoch: 222.9275°
orbit number at epoch: 17300

The dashed part of the orbit path shows where the satellite is in the earth's shadow,  

DLR